IDEFIX & ARIANE 42P R/B (27422 NORAD) Tracking and Keplerian Element Data

This shows tracking and keplerian element data for the satellite.

Feedback or suggestion? Click here.




ElementValue
Catalog27422
NameIDEFIX & ARIANE 42P R/B
Epoch Orbit2763
Epoch Day15.70641117
Epoch Year2022
RAAN326.4526
Inclination98.4317
Eccentricity0.0011739
Argument of Perigee332.001
Mean Anonmoly28.054
Mean Motion14.29353624
Decay Rate6.5E-07
L11 27422U 02021B 22015.70641117 .00000065 00000+0 42072-4 0 9998
L22 27422 98.4317 326.4526 0011739 332.0010 28.0540 14.29353624 27635

Live tracking and technical data element details for IDEFIX & ARIANE 42P R/B (NORAD 27422). IDEFIX & ARIANE 42P R/B can be tracked NOW for your location showing map with azimuth and elevation plus other details from your city location.

Track the satellite on the map from your city or location and see movement details for azimuth, elevation, latitude, longitude, range, height, and movement on the map or in text.







IsCatalogInMostPopularTable: catalog: 27422, numindb: 503
Update: records affected: 1



GetName: 27422 IDEFIX & ARIANE 42P R/B

Hit Count: updated at: Mon, 17 Jan 2022 02:03:39 GMT